カタログに戻る

STARLINK-6324

運用中通信VLEO
NORAD 57353·PAYLOAD·🇺🇸 United States

打ち上げ Jul 16, 2023 から Cape Canaveral Space Force Station

Loading…

次のパス (今後24時間)

TLE

最新Source: CelesTrak SupGP

元期: Sep 14, 2026, 20:54 UTC

1 57353C 23099AB  26257.87131944  .00017922  00000+0  64926-3 0  2572
2 57353  42.9995 260.5527 0001479 260.7570 319.6688 15.27563278    16

AllMySatでSTARLINK-6324をリアルタイム追跡

Download on the App Store